User: anonymous   Login
Location: Unspecified
(0.0000°N, 0.0000°E)
Time: 10:51:24
(UTC+00:00)
Language:

PEHEUNSAT 1 - Orbit

View from above orbital plane
View from above orbital plane
View from above satellite
View from above satellite

Ground track
Ground track

The orbit data is extracted from the following two-line orbital elements,

1 29712U 07001D   21334.80265756  .00010014  00000-0  42103-3 0  9990
2 29712  97.4197   0.9035 0006184  35.4937 324.6710 15.23592116813850
Epoch (UTC): 30 November 2021 19:15:49
Eccentricity: 0.0006184
inclination: 97.4197°
perigee height: 491 km
apogee height: 499 km
right ascension of ascending node: 0.9035°
argument of perigee: 35.4937°
revolutions per day: 15.23592116
mean anomaly at epoch: 324.6710°
orbit number at epoch: 81385

The dashed part of the orbit path shows where the satellite is in the earth's shadow,  

DLR